TimeCST,TemperatureF,Dew PointF,Humidity,Sea Level PressureIn,VisibilityMPH,Wind Direction,Wind SpeedMPH,Gust SpeedMPH,PrecipitationIn,Events,Conditions,WindDirDegrees,DateUTC
12:14 AM,17.6,8.6,68,30.40,10.0,NNW,5.8,-,N/A,,Clear,340,2012-11-16 06:14:00
12:33 AM,17.6,8.6,68,30.40,10.0,NNW,6.9,-,N/A,,Clear,330,2012-11-16 06:33:00
12:54 AM,17.6,8.6,68,30.41,10.0,NNW,6.9,-,N/A,,Clear,330,2012-11-16 06:54:00
1:14 AM,17.6,8.6,68,30.41,10.0,NNW,5.8,-,N/A,,Clear,340,2012-11-16 07:14:00
1:33 AM,17.6,8.6,68,30.41,10.0,Calm,Calm,-,N/A,,Clear,0,2012-11-16 07:33:00
1:54 AM,15.8,8.6,73,30.41,10.0,North,5.8,-,N/A,,Clear,360,2012-11-16 07:54:00
2:14 AM,15.8,8.6,73,30.42,10.0,North,4.6,-,N/A,,Clear,360,2012-11-16 08:14:00
2:33 AM,15.8,8.6,73,30.42,10.0,North,4.6,-,N/A,,Clear,350,2012-11-16 08:33:00
2:53 AM,15.8,8.6,73,30.42,10.0,Calm,Calm,-,N/A,,Clear,0,2012-11-16 08:53:00
3:14 AM,12.2,6.8,79,30.42,10.0,North,4.6,-,N/A,,Clear,360,2012-11-16 09:14:00
3:33 AM,12.2,8.6,85,30.43,10.0,NNW,6.9,-,N/A,,Clear,340,2012-11-16 09:33:00
3:54 AM,14.0,8.6,79,30.43,10.0,North,5.8,-,N/A,,Clear,350,2012-11-16 09:54:00
4:13 AM,14.0,8.6,79,30.42,10.0,North,3.5,-,N/A,,Clear,360,2012-11-16 10:13:00
4:34 AM,12.2,8.6,85,30.42,10.0,Calm,Calm,-,N/A,,Clear,0,2012-11-16 10:34:00
4:54 AM,12.2,6.8,79,30.42,10.0,Calm,Calm,-,N/A,,Clear,0,2012-11-16 10:54:00
5:14 AM,10.4,6.8,85,30.43,10.0,North,4.6,-,N/A,,Clear,350,2012-11-16 11:14:00
5:33 AM,10.4,8.6,92,30.43,10.0,NNW,3.5,-,N/A,,Clear,340,2012-11-16 11:33:00
5:54 AM,10.4,6.8,85,30.43,10.0,Calm,Calm,-,N/A,,Clear,0,2012-11-16 11:54:00
6:14 AM,10.4,8.6,92,30.42,10.0,Calm,Calm,-,N/A,,Clear,0,2012-11-16 12:14:00
6:34 AM,12.2,8.6,85,30.43,10.0,Calm,Calm,-,N/A,,Clear,0,2012-11-16 12:34:00
6:53 AM,10.4,6.8,85,30.43,10.0,Calm,Calm,-,N/A,,Clear,0,2012-11-16 12:53:00
7:14 AM,10.4,6.8,85,30.43,10.0,Calm,Calm,-,N/A,,Clear,0,2012-11-16 13:14:00
7:34 AM,12.2,6.8,79,30.44,10.0,Calm,Calm,-,N/A,,Clear,0,2012-11-16 13:34:00
7:53 AM,12.2,8.6,85,30.44,10.0,Calm,Calm,-,N/A,,Clear,0,2012-11-16 13:53:00
8:14 AM,19.4,12.2,74,30.45,10.0,Calm,Calm,-,N/A,,Clear,0,2012-11-16 14:14:00
8:34 AM,21.2,14.0,74,30.45,10.0,SE,3.5,-,N/A,,Clear,130,2012-11-16 14:34:00
8:53 AM,23.0,15.8,74,30.45,10.0,Calm,Calm,-,N/A,,Clear,0,2012-11-16 14:53:00
9:14 AM,24.8,15.8,69,30.45,10.0,SSE,3.5,-,N/A,,Clear,150,2012-11-16 15:14:00
9:33 AM,26.6,17.6,69,30.45,10.0,SSE,3.5,-,N/A,,Clear,150,2012-11-16 15:33:00
9:53 AM,26.6,17.6,69,30.46,10.0,South,5.8,-,N/A,,Clear,170,2012-11-16 15:53:00
10:14 AM,26.6,17.6,69,30.46,10.0,South,5.8,-,N/A,,Scattered Clouds,170,2012-11-16 16:14:00
10:34 AM,28.4,19.4,69,30.47,10.0,SSE,8.1,-,N/A,,Scattered Clouds,160,2012-11-16 16:34:00
10:53 AM,28.4,19.4,69,30.47,10.0,South,9.2,-,N/A,,Mostly Cloudy,190,2012-11-16 16:53:00
11:14 AM,28.4,19.4,69,30.46,10.0,South,8.1,-,N/A,,Mostly Cloudy,170,2012-11-16 17:14:00
11:34 AM,28.4,19.4,69,30.46,10.0,South,6.9,-,N/A,,Overcast,180,2012-11-16 17:34:00
11:49 AM,28.4,19.4,69,30.45,10.0,SSE,6.9,-,N/A,,Overcast,160,2012-11-16 17:49:00
12:14 PM,30.2,19.4,64,30.44,10.0,South,6.9,-,N/A,,Mostly Cloudy,170,2012-11-16 18:14:00
12:29 PM,28.4,19.4,69,30.44,10.0,North,-9999.0,-,N/A,,Mostly Cloudy,0,2012-11-16 18:29:00
12:54 PM,30.2,19.4,64,30.43,10.0,SSE,6.9,-,N/A,,Scattered Clouds,160,2012-11-16 18:54:00
1:14 PM,30.2,21.2,69,30.43,10.0,SSE,5.8,-,N/A,,Clear,160,2012-11-16 19:14:00
1:33 PM,32.0,21.2,64,30.43,10.0,SSW,5.8,-,N/A,,Clear,200,2012-11-16 19:33:00
1:54 PM,30.2,21.2,69,30.42,10.0,South,6.9,-,N/A,,Clear,170,2012-11-16 19:54:00
2:13 PM,30.2,21.2,69,30.42,10.0,South,8.1,-,N/A,,Scattered Clouds,180,2012-11-16 20:13:00
2:34 PM,28.4,21.2,74,30.41,10.0,SSE,6.9,-,N/A,,Scattered Clouds,160,2012-11-16 20:34:00
2:50 PM,28.4,21.2,74,30.40,10.0,South,5.8,-,N/A,,Mostly Cloudy,170,2012-11-16 20:50:00
3:13 PM,28.4,21.2,74,30.40,10.0,SSE,5.8,-,N/A,,Mostly Cloudy,150,2012-11-16 21:13:00
3:34 PM,28.4,21.2,74,30.40,10.0,SSE,6.9,-,N/A,,Overcast,150,2012-11-16 21:34:00
3:53 PM,28.4,21.2,74,30.38,10.0,SSE,5.8,-,N/A,,Overcast,160,2012-11-16 21:53:00
4:13 PM,26.6,21.2,80,30.38,10.0,SSE,3.5,-,N/A,,Mostly Cloudy,150,2012-11-16 22:13:00
4:34 PM,26.6,21.2,80,30.38,10.0,Calm,Calm,-,N/A,,Mostly Cloudy,0,2012-11-16 22:34:00
4:53 PM,26.6,21.2,80,30.38,10.0,Calm,Calm,-,N/A,,Overcast,0,2012-11-16 22:53:00
5:13 PM,26.6,21.2,80,30.37,10.0,Calm,Calm,-,N/A,,Scattered Clouds,0,2012-11-16 23:13:00
5:34 PM,24.8,21.2,86,30.37,10.0,Calm,Calm,-,N/A,,Clear,0,2012-11-16 23:34:00
5:53 PM,24.8,21.2,86,30.36,10.0,Calm,Calm,-,N/A,,Clear,0,2012-11-16 23:53:00
6:14 PM,24.8,21.2,86,30.37,10.0,SE,3.5,-,N/A,,Clear,130,2012-11-17 00:14:00
6:33 PM,24.8,21.2,86,30.36,10.0,SE,3.5,-,N/A,,Clear,130,2012-11-17 00:33:00
6:53 PM,24.8,21.2,86,30.36,10.0,ESE,3.5,-,N/A,,Clear,120,2012-11-17 00:53:00
7:14 PM,24.8,21.2,86,30.36,10.0,Calm,Calm,-,N/A,,Clear,0,2012-11-17 01:14:00
7:33 PM,24.8,19.4,80,30.36,10.0,ESE,4.6,-,N/A,,Clear,110,2012-11-17 01:33:00
7:54 PM,24.8,19.4,80,30.35,10.0,ESE,5.8,-,N/A,,Clear,120,2012-11-17 01:54:00
8:13 PM,24.8,19.4,80,30.35,10.0,East,3.5,-,N/A,,Clear,100,2012-11-17 02:13:00
8:33 PM,24.8,21.2,86,30.34,10.0,East,3.5,-,N/A,,Clear,100,2012-11-17 02:33:00
8:54 PM,24.8,19.4,80,30.33,10.0,ESE,3.5,-,N/A,,Clear,110,2012-11-17 02:54:00
9:13 PM,24.8,19.4,80,30.33,10.0,ESE,3.5,-,N/A,,Clear,120,2012-11-17 03:13:00
10:14 PM,26.6,21.2,80,30.33,10.0,ESE,4.6,-,N/A,,Clear,120,2012-11-17 04:14:00
10:34 PM,26.6,21.2,80,30.33,10.0,East,3.5,-,N/A,,Clear,100,2012-11-17 04:34:00
10:53 PM,26.6,23.0,86,30.33,10.0,ESE,3.5,-,N/A,,Clear,110,2012-11-17 04:53:00
11:14 PM,26.6,24.8,93,30.32,10.0,SE,4.6,-,N/A,,Clear,130,2012-11-17 05:14:00
11:34 PM,28.4,24.8,86,30.32,10.0,SE,4.6,-,N/A,,Clear,140,2012-11-17 05:34:00
11:53 PM,28.4,24.8,86,30.32,10.0,SSE,4.6,-,N/A,,Clear,150,2012-11-17 05:53:00